Year,Month,Day,Hour,Minute,Value (Times are PST for temperature in C)
2012,07,21,07,40,15.40
2012,07,21,07,41,15.40
2012,07,21,07,42,15.40
2012,07,21,07,43,15.50
2012,07,21,07,44,15.50
2012,07,21,07,45,15.50
2012,07,21,07,46,15.60
2012,07,21,07,47,15.60
2012,07,21,07,48,15.60
2012,07,21,07,49,15.60
2012,07,21,07,50,15.60
2012,07,21,07,51,15.60
2012,07,21,07,52,15.60
2012,07,21,07,53,15.60
2012,07,21,07,54,15.70
2012,07,21,07,55,15.70
2012,07,21,07,56,15.70
2012,07,21,07,57,15.70
2012,07,21,07,58,15.70
2012,07,21,07,59,15.70
2012,07,21,08,00,15.80
2012,07,21,08,01,15.80
2012,07,21,08,02,15.80
2012,07,21,08,03,15.80
2012,07,21,08,04,15.80
2012,07,21,08,05,15.80
2012,07,21,08,06,15.80
2012,07,21,08,07,15.80
2012,07,21,08,08,15.90
2012,07,21,08,09,15.90
2012,07,21,08,10,15.90
2012,07,21,08,11,15.90
2012,07,21,08,12,15.90
2012,07,21,08,13,16.00
2012,07,21,08,14,16.00
2012,07,21,08,15,16.10
2012,07,21,08,16,16.10
2012,07,21,08,17,16.10
2012,07,21,08,18,16.10
2012,07,21,08,19,16.10
2012,07,21,08,20,16.20
2012,07,21,08,21,16.20
2012,07,21,08,22,16.30
2012,07,21,08,23,16.30
2012,07,21,08,24,16.40
2012,07,21,08,25,16.50
2012,07,21,08,26,16.50
2012,07,21,08,27,16.60
2012,07,21,08,28,16.60
2012,07,21,08,29,16.70
2012,07,21,08,30,16.70
2012,07,21,08,31,16.70
2012,07,21,08,32,16.80
2012,07,21,08,33,16.80
2012,07,21,08,34,16.90
2012,07,21,08,35,16.90
2012,07,21,08,36,16.90
2012,07,21,08,37,17.00
2012,07,21,08,38,17.00
2012,07,21,08,39,17.10
2012,07,21,08,40,17.20
2012,07,21,08,41,17.20
2012,07,21,08,42,17.30
2012,07,21,08,43,17.30
2012,07,21,08,44,17.30
2012,07,21,08,45,17.30
2012,07,21,08,46,17.30
2012,07,21,08,47,17.40
2012,07,21,08,48,17.40
2012,07,21,08,49,17.50
2012,07,21,08,50,17.60
2012,07,21,08,51,17.60
2012,07,21,08,52,17.60
2012,07,21,08,53,17.60
2012,07,21,08,54,17.60
2012,07,21,08,55,17.60
2012,07,21,08,56,17.70
2012,07,21,08,57,17.70
2012,07,21,08,58,17.70
2012,07,21,08,59,17.60
2012,07,21,09,00,17.60
2012,07,21,09,01,17.60
2012,07,21,09,02,17.60
2012,07,21,09,03,17.60
2012,07,21,09,04,17.60
2012,07,21,09,05,17.60
2012,07,21,09,06,17.60
2012,07,21,09,07,17.50
2012,07,21,09,08,17.50
2012,07,21,09,09,17.50
2012,07,21,09,10,17.50
2012,07,21,09,11,17.50
2012,07,21,09,12,17.50
2012,07,21,09,13,17.60
2012,07,21,09,14,17.60
2012,07,21,09,15,17.70
2012,07,21,09,16,17.70
2012,07,21,09,17,17.80
2012,07,21,09,18,17.90
2012,07,21,09,19,18.00
2012,07,21,09,20,18.10
2012,07,21,09,21,18.10
2012,07,21,09,22,18.10
2012,07,21,09,23,18.10
2012,07,21,09,24,18.20
2012,07,21,09,25,18.20
2012,07,21,09,26,18.30
2012,07,21,09,27,18.30
2012,07,21,09,28,18.40
2012,07,21,09,29,18.40
2012,07,21,09,30,18.40
2012,07,21,09,31,18.40
2012,07,21,09,32,18.40
2012,07,21,09,33,18.40
2012,07,21,09,34,18.50
2012,07,21,09,35,18.50
2012,07,21,09,36,18.40
2012,07,21,09,37,18.40
2012,07,21,09,38,18.40
2012,07,21,09,39,18.40
2012,07,21,09,40,18.40
2012,07,21,09,41,18.40
2012,07,21,09,42,18.40
2012,07,21,09,43,18.40
2012,07,21,09,44,18.40
2012,07,21,09,45,18.40
2012,07,21,09,46,18.40
2012,07,21,09,47,18.40
2012,07,21,09,48,18.40
2012,07,21,09,49,18.40
2012,07,21,09,50,18.40
2012,07,21,09,51,18.40
2012,07,21,09,52,18.40
2012,07,21,09,53,18.40
2012,07,21,09,54,18.40
2012,07,21,09,55,18.40
2012,07,21,09,56,18.40
2012,07,21,09,57,18.40
2012,07,21,09,58,18.40
2012,07,21,09,59,18.40
2012,07,21,10,00,18.40
2012,07,21,10,01,18.40
2012,07,21,10,02,18.50
2012,07,21,10,03,18.50
2012,07,21,10,04,18.50
2012,07,21,10,05,18.60
2012,07,21,10,06,18.60
2012,07,21,10,07,18.60
2012,07,21,10,08,18.70
2012,07,21,10,09,18.70
2012,07,21,10,10,18.70
2012,07,21,10,11,18.70
2012,07,21,10,12,18.70
2012,07,21,10,13,18.60
2012,07,21,10,14,18.70
2012,07,21,10,15,18.70
2012,07,21,10,16,18.70
2012,07,21,10,17,18.70
2012,07,21,10,18,18.70
2012,07,21,10,19,18.70
2012,07,21,10,20,18.70
2012,07,21,10,21,18.70
2012,07,21,10,22,18.70
2012,07,21,10,23,18.70
2012,07,21,10,24,18.70
2012,07,21,10,25,18.70
2012,07,21,10,26,18.70
2012,07,21,10,27,18.70
2012,07,21,10,28,18.70
2012,07,21,10,29,18.70
2012,07,21,10,30,18.70
2012,07,21,10,31,18.70
2012,07,21,10,32,18.70
2012,07,21,10,33,18.70
2012,07,21,10,34,18.70
2012,07,21,10,35,18.80
2012,07,21,10,36,18.80
2012,07,21,10,37,18.80
2012,07,21,10,38,18.80
2012,07,21,10,39,18.80
2012,07,21,10,40,18.80
2012,07,21,10,41,18.70
2012,07,21,10,42,18.70
2012,07,21,10,43,18.70
2012,07,21,10,44,18.70
2012,07,21,10,45,18.70
2012,07,21,10,46,18.70
2012,07,21,10,47,18.70
2012,07,21,10,48,18.70
2012,07,21,10,49,18.70
2012,07,21,10,50,18.70
2012,07,21,10,51,18.70
2012,07,21,10,52,18.70
2012,07,21,10,53,18.70
2012,07,21,10,54,18.60
2012,07,21,10,55,18.60
2012,07,21,10,56,18.60
2012,07,21,10,57,18.60
2012,07,21,10,58,18.60
2012,07,21,10,59,18.60
2012,07,21,11,00,18.60
2012,07,21,11,01,18.60
2012,07,21,11,02,18.60
2012,07,21,11,03,18.60
2012,07,21,11,04,18.60
2012,07,21,11,05,18.60
2012,07,21,11,06,18.60
2012,07,21,11,07,18.60
2012,07,21,11,08,18.60
2012,07,21,11,09,18.60
2012,07,21,11,10,18.60
2012,07,21,11,11,18.60
2012,07,21,11,12,18.60
2012,07,21,11,13,18.70
2012,07,21,11,14,18.70
2012,07,21,11,15,18.70
2012,07,21,11,16,18.70
2012,07,21,11,17,18.70
2012,07,21,11,18,18.70
2012,07,21,11,19,18.70
2012,07,21,11,20,18.70
2012,07,21,11,21,18.80
2012,07,21,11,22,18.80
2012,07,21,11,23,18.80
2012,07,21,11,24,18.80
2012,07,21,11,25,18.80
2012,07,21,11,26,18.80
2012,07,21,11,27,18.80
2012,07,21,11,28,18.80
2012,07,21,11,29,18.80
2012,07,21,11,30,18.80
2012,07,21,11,31,18.80
2012,07,21,11,32,18.80
2012,07,21,11,33,18.80
2012,07,21,11,34,18.80
2012,07,21,11,35,18.90
2012,07,21,11,36,18.90
2012,07,21,11,37,18.90
2012,07,21,11,38,19.00
2012,07,21,11,39,19.00
2012,07,21,11,40,19.10
2012,07,21,11,41,19.10
2012,07,21,11,42,19.10
2012,07,21,11,43,19.10
2012,07,21,11,44,19.10
2012,07,21,11,45,19.10
2012,07,21,11,46,19.20
2012,07,21,11,47,19.20
2012,07,21,11,48,19.30
2012,07,21,11,49,19.30
2012,07,21,11,50,19.40
2012,07,21,11,51,19.40
2012,07,21,11,52,19.40
2012,07,21,11,53,19.40
2012,07,21,11,54,19.40
2012,07,21,11,55,19.40
2012,07,21,11,56,19.30
2012,07,21,11,57,19.40
2012,07,21,11,58,19.30
2012,07,21,11,59,19.30
2012,07,21,12,00,19.30
2012,07,21,12,01,19.30
2012,07,21,12,02,19.30
2012,07,21,12,03,19.30
2012,07,21,12,04,19.40
2012,07,21,12,05,19.40
2012,07,21,12,06,19.50
2012,07,21,12,07,19.60
2012,07,21,12,08,19.60
2012,07,21,12,09,19.60
2012,07,21,12,10,19.60
2012,07,21,12,11,19.60
2012,07,21,12,12,19.60
2012,07,21,12,13,19.60
2012,07,21,12,14,19.70
2012,07,21,12,15,19.70
2012,07,21,12,16,19.70
2012,07,21,12,17,19.70
2012,07,21,12,18,19.60
2012,07,21,12,19,19.60
2012,07,21,12,20,19.60
2012,07,21,12,21,19.60
2012,07,21,12,22,19.60
2012,07,21,12,23,19.60
2012,07,21,12,24,19.60
2012,07,21,12,25,19.60
2012,07,21,12,26,19.60
2012,07,21,12,27,19.60
2012,07,21,12,28,19.60
2012,07,21,12,29,19.60
2012,07,21,12,30,19.60
2012,07,21,12,31,19.60
2012,07,21,12,32,19.50
2012,07,21,12,33,19.50
2012,07,21,12,34,19.50
2012,07,21,12,35,19.40
2012,07,21,12,36,19.40
2012,07,21,12,37,19.40
2012,07,21,12,38,19.40
2012,07,21,12,39,19.40
2012,07,21,12,40,19.40
2012,07,21,12,41,19.30
2012,07,21,12,42,19.30
2012,07,21,12,43,19.30
2012,07,21,12,44,19.30
2012,07,21,12,45,19.30
2012,07,21,12,46,19.40
2012,07,21,12,47,19.40
2012,07,21,12,48,19.50
2012,07,21,12,49,19.40
2012,07,21,12,50,19.40
2012,07,21,12,51,19.30
2012,07,21,12,52,19.30
2012,07,21,12,53,19.30
2012,07,21,12,54,19.20
2012,07,21,12,55,19.20
2012,07,21,12,56,19.20
2012,07,21,12,57,19.20
2012,07,21,12,58,19.20
2012,07,21,12,59,19.10
2012,07,21,13,00,19.10
2012,07,21,13,01,19.10
2012,07,21,13,02,19.20
2012,07,21,13,03,19.20
2012,07,21,13,04,19.20
2012,07,21,13,05,19.30
2012,07,21,13,06,19.30
2012,07,21,13,07,19.30
2012,07,21,13,08,19.30
2012,07,21,13,09,19.30
2012,07,21,13,10,19.30
2012,07,21,13,11,19.30
2012,07,21,13,12,19.30
2012,07,21,13,13,19.30
2012,07,21,13,14,19.30
2012,07,21,13,15,19.30
2012,07,21,13,16,19.40
2012,07,21,13,17,19.40
2012,07,21,13,18,19.40
2012,07,21,13,19,19.40
2012,07,21,13,20,19.40
2012,07,21,13,21,19.40
2012,07,21,13,22,19.50
2012,07,21,13,23,19.50
2012,07,21,13,24,19.60
2012,07,21,13,25,19.60
2012,07,21,13,26,19.60
2012,07,21,13,27,19.70
2012,07,21,13,28,19.60
2012,07,21,13,29,19.60
2012,07,21,13,30,19.50
2012,07,21,13,31,19.50
2012,07,21,13,32,19.40
2012,07,21,13,33,19.40
2012,07,21,13,34,19.30
2012,07,21,13,35,19.30
2012,07,21,13,36,19.30
2012,07,21,13,37,19.40
2012,07,21,13,38,19.40
2012,07,21,13,39,19.40
2012,07,21,13,40,19.50
2012,07,21,13,41,19.50
2012,07,21,13,42,19.50
2012,07,21,13,43,19.50
2012,07,21,13,44,19.50
2012,07,21,13,45,19.50
2012,07,21,13,46,19.50
2012,07,21,13,47,19.40
2012,07,21,13,48,19.40
2012,07,21,13,49,19.40
2012,07,21,13,50,19.50
2012,07,21,13,51,19.50
2012,07,21,13,52,19.50
2012,07,21,13,53,19.50
2012,07,21,13,54,19.60
2012,07,21,13,55,19.60
2012,07,21,13,56,19.60
2012,07,21,13,57,19.60
2012,07,21,13,58,19.60
2012,07,21,13,59,19.60
2012,07,21,14,00,19.60
2012,07,21,14,01,19.70
2012,07,21,14,02,19.70
2012,07,21,14,03,19.70
2012,07,21,14,04,19.70
2012,07,21,14,05,19.70
2012,07,21,14,06,19.70
2012,07,21,14,07,19.60
2012,07,21,14,08,19.60
2012,07,21,14,09,19.60
2012,07,21,14,10,19.60
2012,07,21,14,11,19.60
2012,07,21,14,12,19.50
2012,07,21,14,13,19.50
2012,07,21,14,14,19.50
2012,07,21,14,15,19.60
2012,07,21,14,16,19.60
2012,07,21,14,17,19.60
2012,07,21,14,18,19.60
2012,07,21,14,19,19.60
2012,07,21,14,20,19.60
2012,07,21,14,21,19.60
2012,07,21,14,22,19.60
2012,07,21,14,23,19.60
2012,07,21,14,24,19.60
2012,07,21,14,25,19.60
2012,07,21,14,26,19.60
2012,07,21,14,27,19.60
2012,07,21,14,28,19.60
2012,07,21,14,29,19.60
2012,07,21,14,30,19.60
2012,07,21,14,31,19.70
2012,07,21,14,32,19.70
2012,07,21,14,33,19.70
2012,07,21,14,34,19.70
2012,07,21,14,35,19.60
2012,07,21,14,36,19.60
2012,07,21,14,37,19.50
2012,07,21,14,38,19.60
2012,07,21,14,39,19.60
2012,07,21,14,40,19.60
2012,07,21,14,41,19.60
2012,07,21,14,42,19.60
2012,07,21,14,43,19.60
2012,07,21,14,44,19.60
2012,07,21,14,45,19.60
2012,07,21,14,46,19.50
2012,07,21,14,47,19.50
2012,07,21,14,48,19.40
2012,07,21,14,49,19.40
2012,07,21,14,50,19.30
2012,07,21,14,51,19.30
2012,07,21,14,52,19.30
2012,07,21,14,53,19.30
2012,07,21,14,54,19.40
2012,07,21,14,55,19.40
2012,07,21,14,56,19.40
2012,07,21,14,57,19.40
2012,07,21,14,58,19.40
2012,07,21,14,59,19.40
2012,07,21,15,00,19.50
2012,07,21,15,01,19.50
2012,07,21,15,02,19.50
2012,07,21,15,03,19.50
2012,07,21,15,04,19.50
2012,07,21,15,05,19.40
2012,07,21,15,06,19.50
2012,07,21,15,07,19.60
2012,07,21,15,08,19.60
2012,07,21,15,09,19.60
2012,07,21,15,10,19.60
2012,07,21,15,11,19.50
2012,07,21,15,12,19.50
2012,07,21,15,13,19.50
2012,07,21,15,14,19.50
2012,07,21,15,15,19.50
2012,07,21,15,16,19.50
2012,07,21,15,17,19.50
2012,07,21,15,18,19.50
2012,07,21,15,19,19.50
2012,07,21,15,20,19.50
2012,07,21,15,21,19.50
2012,07,21,15,22,19.50
2012,07,21,15,23,19.50
2012,07,21,15,24,19.50
2012,07,21,15,25,19.50
2012,07,21,15,26,19.60
2012,07,21,15,27,19.50
2012,07,21,15,28,19.50
2012,07,21,15,29,19.50
2012,07,21,15,30,19.50
2012,07,21,15,31,19.50
2012,07,21,15,32,19.50
2012,07,21,15,33,19.50
2012,07,21,15,34,19.50
2012,07,21,15,35,19.50
2012,07,21,15,36,19.50
2012,07,21,15,37,19.50
2012,07,21,15,38,19.60
2012,07,21,15,39,19.60
2012,07,21,15,40,19.60
2012,07,21,15,41,19.70
2012,07,21,15,42,19.70
2012,07,21,15,43,19.70
2012,07,21,15,44,19.70
2012,07,21,15,45,19.80
2012,07,21,15,46,19.80
2012,07,21,15,47,19.70
2012,07,21,15,48,19.70
2012,07,21,15,49,19.60
2012,07,21,15,50,19.60
2012,07,21,15,51,19.50
2012,07,21,15,52,19.50
2012,07,21,15,53,19.40
2012,07,21,15,54,19.40
2012,07,21,15,55,19.40
2012,07,21,15,56,19.30
2012,07,21,15,57,19.30
2012,07,21,15,58,19.30
2012,07,21,15,59,19.30
2012,07,21,16,00,19.30
2012,07,21,16,01,19.40
2012,07,21,16,02,19.30
2012,07,21,16,03,19.30
2012,07,21,16,04,19.40
2012,07,21,16,05,19.40
2012,07,21,16,06,19.50
2012,07,21,16,07,19.60
2012,07,21,16,08,19.70
2012,07,21,16,09,19.70
2012,07,21,16,10,19.80
2012,07,21,16,11,19.70
2012,07,21,16,12,19.70
2012,07,21,16,13,19.70
2012,07,21,16,14,19.70
2012,07,21,16,15,19.70
2012,07,21,16,16,19.80
2012,07,21,16,17,19.80
2012,07,21,16,18,19.80
2012,07,21,16,19,19.80
2012,07,21,16,20,19.90
2012,07,21,16,21,19.90
2012,07,21,16,22,19.90
2012,07,21,16,23,19.90
2012,07,21,16,24,19.90
2012,07,21,16,25,19.90
2012,07,21,16,26,19.90
2012,07,21,16,27,20.00
2012,07,21,16,28,20.00
2012,07,21,16,29,20.20
2012,07,21,16,30,20.20
2012,07,21,16,31,20.20
2012,07,21,16,32,20.10
2012,07,21,16,33,20.10
2012,07,21,16,34,20.00
2012,07,21,16,35,20.00
2012,07,21,16,36,20.00
2012,07,21,16,37,19.90
2012,07,21,16,38,19.90
2012,07,21,16,39,19.90
2012,07,21,16,40,19.90
2012,07,21,16,41,19.90
2012,07,21,16,42,19.90
2012,07,21,16,43,19.90
2012,07,21,16,44,19.90
2012,07,21,16,45,19.90
2012,07,21,16,46,19.90
2012,07,21,16,47,19.90
2012,07,21,16,48,19.90
2012,07,21,16,49,19.90
2012,07,21,16,50,19.90
2012,07,21,16,51,20.00
2012,07,21,16,52,20.00
2012,07,21,16,53,20.00
2012,07,21,16,54,20.10
2012,07,21,16,55,20.10
2012,07,21,16,56,20.00
2012,07,21,16,57,20.00
2012,07,21,16,58,20.00
2012,07,21,16,59,20.00
2012,07,21,17,00,20.10
2012,07,21,17,01,20.10
2012,07,21,17,02,20.10
2012,07,21,17,03,20.10
2012,07,21,17,04,20.10
2012,07,21,17,05,20.10
2012,07,21,17,06,20.10
2012,07,21,17,07,20.10
2012,07,21,17,08,20.20
2012,07,21,17,09,20.20
2012,07,21,17,10,20.20
2012,07,21,17,11,20.20
2012,07,21,17,12,20.20
2012,07,21,17,13,20.20
2012,07,21,17,14,20.20
2012,07,21,17,15,20.20
2012,07,21,17,16,20.10
2012,07,21,17,17,20.10
2012,07,21,17,18,20.10
2012,07,21,17,19,20.20
2012,07,21,17,20,20.20
2012,07,21,17,21,20.20
2012,07,21,17,22,20.20
2012,07,21,17,23,20.20
2012,07,21,17,24,20.30
2012,07,21,17,25,20.30
2012,07,21,17,26,20.30
2012,07,21,17,27,20.30
2012,07,21,17,28,20.30
2012,07,21,17,29,20.30
2012,07,21,17,30,20.20
2012,07,21,17,31,20.20
2012,07,21,17,32,20.20
2012,07,21,17,33,20.10
2012,07,21,17,34,20.10
2012,07,21,17,35,20.10
2012,07,21,17,36,20.10
2012,07,21,17,37,20.10
2012,07,21,17,38,20.10
2012,07,21,17,39,20.10
2012,07,21,17,40,20.10
2012,07,21,17,41,20.10
2012,07,21,17,42,20.10
2012,07,21,17,43,20.10
2012,07,21,17,44,20.20
2012,07,21,17,45,20.20
2012,07,21,17,46,20.20
2012,07,21,17,47,20.30
2012,07,21,17,48,20.40
2012,07,21,17,49,20.40
2012,07,21,17,50,20.50
2012,07,21,17,51,20.50
2012,07,21,17,52,20.60
2012,07,21,17,53,20.60
2012,07,21,17,54,20.60
2012,07,21,17,55,20.70
2012,07,21,17,56,20.70
2012,07,21,17,57,20.70
2012,07,21,17,58,20.70
2012,07,21,17,59,20.70
2012,07,21,18,00,20.70
2012,07,21,18,01,20.70
2012,07,21,18,02,20.70
2012,07,21,18,03,20.80
2012,07,21,18,04,20.80
2012,07,21,18,05,20.80
2012,07,21,18,06,20.80
2012,07,21,18,07,20.80
2012,07,21,18,08,20.80
2012,07,21,18,09,20.80
2012,07,21,18,10,20.80
2012,07,21,18,11,20.80
2012,07,21,18,12,20.80
2012,07,21,18,13,20.80
2012,07,21,18,14,20.80
2012,07,21,18,15,20.80
2012,07,21,18,16,20.80
2012,07,21,18,17,20.80
2012,07,21,18,18,20.80
2012,07,21,18,19,20.70
2012,07,21,18,20,20.70
2012,07,21,18,21,20.70
2012,07,21,18,22,20.70
2012,07,21,18,23,20.70
2012,07,21,18,24,20.70
2012,07,21,18,25,20.70
2012,07,21,18,26,20.70
2012,07,21,18,27,20.70
2012,07,21,18,28,20.70
2012,07,21,18,29,20.70
2012,07,21,18,30,20.70
2012,07,21,18,31,20.70
2012,07,21,18,32,20.70
2012,07,21,18,33,20.70
2012,07,21,18,34,20.70
2012,07,21,18,35,20.70
2012,07,21,18,36,20.60
2012,07,21,18,37,20.70
2012,07,21,18,38,20.70
2012,07,21,18,39,20.70
2012,07,21,18,40,20.70
2012,07,21,18,41,20.80
2012,07,21,18,42,20.90
2012,07,21,18,43,20.90
2012,07,21,18,44,20.90
2012,07,21,18,45,20.90
2012,07,21,18,46,20.90
2012,07,21,18,47,20.90
2012,07,21,18,48,20.90
2012,07,21,18,49,20.90
2012,07,21,18,50,20.80
2012,07,21,18,51,20.80
2012,07,21,18,52,20.80
2012,07,21,18,53,20.80
2012,07,21,18,54,20.80
2012,07,21,18,55,20.80
2012,07,21,18,56,20.80
2012,07,21,18,57,20.80
2012,07,21,18,58,20.80
2012,07,21,18,59,20.90
2012,07,21,19,00,20.90
2012,07,21,19,01,20.80
2012,07,21,19,02,20.80
2012,07,21,19,03,20.70
2012,07,21,19,04,20.70
2012,07,21,19,05,20.70
2012,07,21,19,06,20.70
2012,07,21,19,07,20.70
2012,07,21,19,08,20.80
2012,07,21,19,09,20.80
2012,07,21,19,10,20.80
2012,07,21,19,11,20.70
2012,07,21,19,12,20.70
2012,07,21,19,13,20.70
2012,07,21,19,14,20.70
2012,07,21,19,15,20.60
2012,07,21,19,16,20.60
2012,07,21,19,17,20.60
2012,07,21,19,18,20.50
2012,07,21,19,19,20.50
2012,07,21,19,20,20.50
2012,07,21,19,21,20.50
2012,07,21,19,22,20.50
2012,07,21,19,23,20.60
2012,07,21,19,24,20.60
2012,07,21,19,25,20.60
2012,07,21,19,26,20.60
2012,07,21,19,27,20.60
2012,07,21,19,28,20.50
2012,07,21,19,29,20.50
2012,07,21,19,30,20.50
2012,07,21,19,31,20.50
2012,07,21,19,32,20.40
2012,07,21,19,33,20.40
2012,07,21,19,34,20.40
2012,07,21,19,35,20.40
2012,07,21,19,36,20.30
2012,07,21,19,37,20.30
2012,07,21,19,38,20.30
2012,07,21,19,39,20.30
2012,07,21,19,40,20.30
2012,07,21,19,41,20.30
2012,07,21,19,42,20.30
2012,07,21,19,43,20.20
2012,07,21,19,44,20.20
2012,07,21,19,45,20.20
2012,07,21,19,46,20.20
2012,07,21,19,47,20.20
2012,07,21,19,48,20.20
2012,07,21,19,49,20.10
2012,07,21,19,50,20.10
2012,07,21,19,51,20.10
2012,07,21,19,52,20.10
2012,07,21,19,53,20.00
2012,07,21,19,54,20.00
2012,07,21,19,55,20.00
2012,07,21,19,56,20.00
2012,07,21,19,57,19.90
2012,07,21,19,58,19.90
2012,07,21,19,59,19.90
2012,07,21,20,00,19.90
2012,07,21,20,01,19.90
2012,07,21,20,02,19.80
2012,07,21,20,03,19.80
2012,07,21,20,04,19.80
2012,07,21,20,05,19.80
2012,07,21,20,06,19.80
2012,07,21,20,07,19.80
2012,07,21,20,08,19.80
2012,07,21,20,09,19.80
2012,07,21,20,10,19.70
2012,07,21,20,11,19.70
2012,07,21,20,12,19.70
2012,07,21,20,13,19.70
2012,07,21,20,14,19.70
2012,07,21,20,15,19.70
2012,07,21,20,16,19.60
2012,07,21,20,17,19.60
2012,07,21,20,18,19.60
2012,07,21,20,19,19.60
2012,07,21,20,20,19.60
2012,07,21,20,21,19.60
2012,07,21,20,22,19.60
2012,07,21,20,23,19.50
2012,07,21,20,24,19.50
2012,07,21,20,25,19.40
2012,07,21,20,26,19.40
2012,07,21,20,27,19.40
2012,07,21,20,28,19.40
2012,07,21,20,29,19.40
2012,07,21,20,30,19.30
2012,07,21,20,31,19.30
2012,07,21,20,32,19.30
2012,07,21,20,33,19.30
2012,07,21,20,34,19.30
2012,07,21,20,35,19.30
2012,07,21,20,36,19.20
2012,07,21,20,37,19.20
2012,07,21,20,38,19.20
2012,07,21,20,39,19.10
2012,07,21,20,40,19.10
2012,07,21,20,41,19.00
2012,07,21,20,42,19.00
2012,07,21,20,43,18.90
2012,07,21,20,44,18.80
2012,07,21,20,45,18.80
2012,07,21,20,46,18.80
2012,07,21,20,47,18.70
2012,07,21,20,48,18.70
2012,07,21,20,49,18.70
2012,07,21,20,50,18.60
2012,07,21,20,51,18.60
2012,07,21,20,52,18.50
2012,07,21,20,53,18.50
2012,07,21,20,54,18.50
2012,07,21,20,55,18.40
2012,07,21,20,56,18.40
2012,07,21,20,57,18.30
2012,07,21,20,58,18.30
2012,07,21,20,59,18.30
2012,07,21,21,00,18.30
2012,07,21,21,01,18.20
2012,07,21,21,02,18.20
2012,07,21,21,03,18.10
2012,07,21,21,04,18.10
2012,07,21,21,05,18.10
2012,07,21,21,06,18.00
2012,07,21,21,07,18.00
2012,07,21,21,08,17.90
2012,07,21,21,09,17.90
2012,07,21,21,10,17.80
2012,07,21,21,11,17.80
2012,07,21,21,12,17.80
2012,07,21,21,13,17.80
2012,07,21,21,14,17.70
2012,07,21,21,15,17.70
2012,07,21,21,16,17.70
2012,07,21,21,17,17.70
2012,07,21,21,18,17.70
2012,07,21,21,19,17.60
2012,07,21,21,20,17.60
2012,07,21,21,21,17.60
2012,07,21,21,22,17.60
2012,07,21,21,23,17.50
2012,07,21,21,24,17.50
2012,07,21,21,25,17.50
2012,07,21,21,26,17.40
2012,07,21,21,27,17.40
2012,07,21,21,28,17.40
2012,07,21,21,29,17.40
2012,07,21,21,30,17.40
2012,07,21,21,31,17.40
2012,07,21,21,32,17.30
2012,07,21,21,33,17.30
2012,07,21,21,34,17.30
2012,07,21,21,35,17.30
2012,07,21,21,36,17.30
2012,07,21,21,37,17.30
2012,07,21,21,38,17.30
2012,07,21,21,39,17.30
2012,07,21,21,40,17.30
2012,07,21,21,41,17.30
2012,07,21,21,42,17.30
2012,07,21,21,43,17.20
2012,07,21,21,44,17.20
2012,07,21,21,45,17.20
2012,07,21,21,46,17.20
2012,07,21,21,47,17.20
2012,07,21,21,48,17.20
2012,07,21,21,49,17.20
2012,07,21,21,50,17.20
2012,07,21,21,51,17.20
2012,07,21,21,52,17.20
2012,07,21,21,53,17.10
2012,07,21,21,54,17.10
2012,07,21,21,55,17.10
2012,07,21,21,56,17.10
2012,07,21,21,57,17.10
2012,07,21,21,58,17.10
2012,07,21,21,59,17.10
2012,07,21,22,00,17.10
2012,07,21,22,01,17.10
2012,07,21,22,02,17.10
2012,07,21,22,03,17.10
2012,07,21,22,04,17.10
2012,07,21,22,05,17.10
2012,07,21,22,06,17.10
2012,07,21,22,07,17.10
2012,07,21,22,08,17.00
2012,07,21,22,09,17.00
2012,07,21,22,10,17.00
2012,07,21,22,11,17.00
2012,07,21,22,12,17.00
2012,07,21,22,13,17.00
2012,07,21,22,14,17.00
2012,07,21,22,15,17.00
2012,07,21,22,16,17.00
2012,07,21,22,17,17.00
2012,07,21,22,18,17.00
2012,07,21,22,19,17.00
2012,07,21,22,20,16.90
2012,07,21,22,21,16.90
2012,07,21,22,22,16.90
2012,07,21,22,23,16.90
2012,07,21,22,24,16.90
2012,07,21,22,25,16.80
2012,07,21,22,26,16.80
2012,07,21,22,27,16.80
2012,07,21,22,28,16.80
2012,07,21,22,29,16.80
2012,07,21,22,30,16.80
2012,07,21,22,31,16.80
2012,07,21,22,32,16.80
2012,07,21,22,33,16.80
2012,07,21,22,34,16.80
2012,07,21,22,35,16.80
